www.pogodaiklimat.ru

Погода и климат >> Архив погоды >> Кувейт >> Метеостанция Sabriyah


ПОГОДА на Метеостанции Sabriyah

  • Прогноз погоды на Метеостанции Sabriyah
  • Монитор погоды на Метеостанции Sabriyah

АРХИВ ПОГОДЫ на Метеостанции Sabriyah

Время (UTC), дата Ветер
(напр.,м/с)
 
Видим.   Явления Облачность Т
(С)
Тd
(С)
f
(%)
Тe
(С)
Тes
(С)
Комфортность P
(гПа)
Po
(гПа)
Тmin
(С)
Tmax
(С)
R
(мм)
R24
(мм)
S
(см)
03 20.05 0 16 км н/о +26.4 +22.6 80 1008.6 1002.2
06 20.05 0 н/о н/о +32.2 +18.9 45 1009.3 1003.0
09 20.05 0 н/о н/о +35.9 +13.2 26 1008.6 1002.4
12 20.05 0 н/о н/о +36.0 +11.0 22 1006.9 1000.7
15 20.05 0 н/о н/о +32.0 +13.1 32 1005.9 999.6
18 20.05 0 н/о н/о +29.1 +18.5 53 1007.6 1001.2
21 20.05 0 н/о н/о +28.7 +12.6 37 1011.7 1005.3 +25.6 +37.1
00 21.05 0 н/о н/о +27.4 +12.3 39 1009.4 1003.0
03 21.05 0 н/о н/о +26.7 +13.2 43 1009.8 1003.4
06 21.05 0 н/о н/о +32.2 +11.7 29 1010.5 1004.2
09 21.05 0 н/о н/о +38.8 +5.7 13 1009.7 1003.5
12 21.05 0 н/о н/о +36.6 +13.0 24 1008.1 1001.9
15 21.05 0 н/о н/о +32.7 +16.4 38 1008.1 1001.8
18 21.05 0 н/о н/о
21 21.05 0 н/о н/о +25.4 +39.8
00 22.05 0 н/о н/о
03 22.05 0 н/о н/о
06 22.05 0 н/о н/о +36.4 +7.4 17 1011.1 1004.9
09 22.05 0 н/о н/о +39.8 +3.0 10 1009.5 1003.3
12 22.05 0 н/о н/о +40.5 +0.8 9 1007.7 1001.6
15 22.05 0 н/о н/о +39.3 +1.6 10 1007.1 1001.0
18 22.05 0 н/о н/о +33.3 +5.8 18 1008.4 1002.1
21 22.05 0 н/о н/о
00 23.05 0 н/о н/о
03 23.05 0 н/о н/о
06 23.05 0 н/о н/о +36.6 +4.7 14 1009.1 1002.9
09 23.05 0 н/о н/о +40.4 +2.2 9 1007.9 1001.8
12 23.05 0 н/о н/о +40.7 +2.5 10 1006.5 1000.4
15 23.05 0 н/о н/о +38.8 +2.2 10 1006.3 1000.1
18 23.05 0 н/о н/о +33.3 +4.1 16 1007.6 1001.3
21 23.05 0 н/о н/о
00 24.05 0 н/о н/о
03 24.05 0 н/о н/о
06 24.05 0 н/о н/о +36.0 +5.4 15 1008.5 1002.3
09 24.05 0 н/о н/о +41.0 +2.8 10 1007.5 1001.4
12 24.05 0 20 км н/о +42.2 +1.9 8 1006.0 999.9
15 24.05 0 н/о н/о +38.3 +4.0 12 1006.1 999.9
18 24.05 0 н/о н/о
00 25.05 0 н/о н/о
03 25.05 0 н/о н/о
06 25.05 0 н/о н/о +38.7 +1.4 10 1009.7 1003.5
09 25.05 0 н/о н/о +42.7 +0.5 7 1008.5 1002.4
12 25.05 0 20 км н/о +43.7 +1.6 8 1006.6 1000.5
15 25.05 0 н/о н/о +39.7 +4.0 11 1005.6 999.5
00 26.05 0 н/о н/о
03 26.05 0 н/о н/о
06 26.05 0 н/о н/о +41.1 -2.1 7 1007.5 1001.4
09 26.05 0 19 км н/о +44.5 -0.9 6 1006.4 1000.4
12 26.05 0 20 км н/о +45.5 -4.5 4 1004.1 998.1
15 26.05 0 н/о н/о +39.0 +8.2 16 1004.2 998.1

 

Местоположение метеостанции Метеостанция Sabriyah (Кувейт): широта 29.75 долгота 47.85 высота над уровнем моря 56 м.

В архиве по умолчанию представлена погода на Метеостанции Sabriyah за последнюю неделю. Архивные данные за месяц целиком и за предыдущие месяцы, начиная с января 2011 года, Вы можете получить, выбрав интересующий диапазон дат из раскрывающегося списка и нажав кнопку "Ввод!".


*Определитесь, кто Вы:
робот инопланетянин человек

Внимание! Время в таблицах - всемирное. Для получения местного времени необходимо прибавить поправку, которая равна 3 ч.

Смотрите также архив погоды в соседних городах и на ближайших метеорологических станциях:

Погода на Метеостанции Jal Aliyah (Кувейт) (30 км)
Погода в Абдали (Кувейт) (39 км)
Погода на Метеостанции Mintribah (Кувейт) (47 км)
Погода в Кувейт Сити (Кувейт) (51 км)
Погода в Аль-Шуаиба (Кувейт) (51 км)
Погода в Эль-Джахра (Кувейт) (51 км)
Погода на Бубияне (Кувейт) (51 км)
Погода на Экспериментальной ферме (Кувейт) (52 км)
Погода Остров Файлака (Кувейт) (52 км)
Погода в Сулайбии (Кувейт) (55 км)

Пояснения к столбцам:

Ветер - указаны скорость ветра в м/с - средняя за 10 мин, порывы в срок и между сроками (в фигурных скобках) и направление, откуда дует ветер: С - северный, СВ - северо-восточный, В - восточный, ЮВ - юго-восточный, Ю - южный, ЮЗ - юго-западный, З - западный, СЗ - северо-западный.
Видимость - горизонтальная дальность видимости в метрах или километрах. При видимости от 1 до 10 км при отсутствии осадков обычно наблюдается дымка, при ухудшении видимости до 1 км и менее - туман. В сухую погоду видимость может ухудшаться дымом, пылью или мглою.
Явления - указаны атмосферные явления, наблюдавшиеся в срок или в последний час перед сроком; фигурными скобками обозначены явления, наблюдавшиеся между сроками (за 1-3 часа до срока); квадратными скобками обозначены град или гололедные отложения с указанием их диаметра в мм.
Облачность - указаны через наклонную черту общая и нижняя облачность в баллах и высота нижней границы облаков в метрах; квадратными скобками обозначены формы облаков: Ci - перистые, Cs - перисто-слоистые, Cc - перисто-кучевые, Ac - высококучевые, As - высокослоистые, Sc - слоисто-кучевые, Ns - слоисто-дождевые, Cu - кучевые, Cb - кучево-дождевые. Подробнее классификацию облаков см. в Атласе облаков (PDF).
T - Температура воздуха - температура, измеренная на высоте 2 м над землей.
Td - Температура точки росы - температура, при понижении до которой содержащийся в воздухе водяной пар достигнет насыщения.
f - Относительная влажность воздуха - влажноcть воздуха, измеренная на высоте 2 м над землей.
Te - Эффективная температура - температура, которую ощущает одетый по сезону человек в тени. Характеристика душности погоды. При расчете учитывается влияние влажности воздуха и скорости ветра на теплоощущения человека.
Tes - Эффективная температура на солнце - температура, которую ощущает человек, с поправкой на солнечный нагрев. Характеристика знойности погоды. Зависит от высоты солнца над горизонтом, облачности и скорости ветра. Ночью, в пасмурную погоду, а также при ветре 12 м/с и более поправка равна нулю.
P - Атмосферное давление - приведенное к уровню моря атмосферное давление.
Po - Атмосферное давление - измеренное на уровне метеостанции атмосферное давление.
Tmin - Минимальная температура - минимум температуры воздуха на высоте 2 м над землей.
Tmax - Максимальная температура - максимум температуры воздуха на высоте 2 м над землей.
R - Количество осадков - Количество выпавших осадков за период времени, мм. При наведении курсора мыши на число - период времени, за который выпало указанное количество осадков.
R24 - Количество осадков - Количество выпавших осадков за 24 часа, мм.
S - Снежный покров - Высота снежного покрова, см. При наведении курсора мыши на число - состояние снежного покрова и степень покрытия местности в баллах.